User: anonymous   Login
Location: Carr Mill
(33.2054°N, 85.9439°W)
Time: 14:57:26
(UTC+00:00)
Language:

ERS-2 - Orbit

View from above orbital plane
View from above orbital plane
View from above satellite
View from above satellite

Ground track
Ground track

The orbit data is extracted from the following two-line orbital elements,

1 23560U 95021A   21019.79551928  .00000811  00000-0  37629-4 0  9993
2 23560  98.5534 209.2161 0004059 140.6681 219.4848 15.23608130375052
Epoch (UTC): 19 January 2021 19:05:32
Eccentricity: 0.0004059
inclination: 98.5534°
perigee height: 492 km
apogee height: 498 km
right ascension of ascending node: 209.2161°
argument of perigee: 140.6681°
revolutions per day: 15.23608130
mean anomaly at epoch: 219.4848°
orbit number at epoch: 37505

The dashed part of the orbit path shows where the satellite is in the earth's shadow,  

DLR